Location: Invercargill
(46.4000°S, 168.3500°E)
Time: 17:50:50
(UTC+12:00)

Cosmos 2221 - Pass Details

Date: 14 May 2021
Orbit: 593 x 615 km, 82.5° (Epoch: 14 June)

Event Time Altitude Azimuth Distance (km) Brightness Sun altitude
Rises 18:22:00 0° 185° (S) 2,878 5.9 -9.9°
Reaches altitude 10° 18:24:17 10° 180° (S) 1,967 5.0 -10.3°
Maximum altitude 18:28:33 53° 102° (ESE) 746 2.6 -11.0°
Drops below altitude 10° 18:32:45 10° 25° (NNE) 1,942 5.0 -11.7°
Sets 18:34:59 0° 19° (NNE) 2,838 5.9 -12.1°
